Regional Weather Roundup
Issued by NWS

Home | Current Version | Previous Version | Text Only | Print | Product List | Glossary Off
Versions: 1 2 3 4 5 6 7 8 9 10 11 12 13 14 15 16 17 18 19 20 21 22 23 24 25 26 27 28 29 30 31 32 33 34 35 36 37 38 39 40 41 42 43 44 45 46 47 48 49 50

168
ASUS43 KDTX 130310
RWRMI
MICHIGAN HOURLY REGIONAL WEATHER ROUNDUP
NATIONAL WEATHER SERVICE DETROIT/PONTIAC MI
1000 PM EST TUE DEC 12 2017

NOTE: "FAIR" INDICATES FEW OR NO CLOUDS BELOW 12,000 FEET WITH NO
SIGNIFICANT WEATHER AND/OR OBSTRUCTION TO VISIBILITY.

MIZ047>049-052>055-059>063-066>070-074>076-081>083-130400-
SOUTHEAST LOWER MICHIGAN

CITY           SKY/WX    TMP DP  RH WIND       PRES   REMARKS
ADRIAN         CLOUDY    17   2  51 NW9       29.92S WCI   6
ALMA           MOCLDY    14  10  84 W5        29.90S WCI   7
ANN ARBOR      CLOUDY    16   8  71 W9        29.88S WCI   4
BAD AXE        PTCLDY    11   3  68 NW15G21   29.84S WCI  -5
CARO           PTCLDY    12   4  69 NW7       29.87S WCI   2
DETROIT CITY   MOCLDY    14   4  64 W8        29.88S WCI   3
DETROIT        MOCLDY    17   8  67 W8        29.90S WCI   7
FLINT          FLURRIES  14   6  70 NW7       29.88F WCI   4
GROSSE ILE     CLOUDY    16   9  72 W5        29.89S WCI   9
HILLSDALE      CLOUDY    18   9  68 W8        29.89S WCI   7
HOWELL         CLOUDY    16  11  82 NW9       29.87F WCI   4

CITY           SKY/WX    TMP DP  RH WIND       PRES   REMARKS
JACKSON        CLOUDY    17   3  54 W12       29.89F WCI   4
LAMBERTVILLE   CLOUDY    15   3  60 W3        29.92S
LANSING        CLOUDY    16   8  71 W12       29.90F WCI   3
LAPEER         FAIR      12   1  62 NW10G16   29.86S WCI  -1
MASON          CLOUDY    17   6  60 NW8G17    29.89S WCI   7
MONROE         CLOUDY    17   7  65 W7        29.90S WCI   7
MT. CLEMENS    PTCLDY    13   1  58 NW13      29.85S WCI  -1
PONTIAC        FLURRIES  14   6  70 NW12      29.85S WCI   0
PORT HOPE        N/A     18  10  71 NW20G33   29.80F WCI   2
PORT HURON     CLEAR     10   0  61 W8        29.84S WCI  -1
TRI CITIES     CLOUDY    15   6  67 NW8       29.90S WCI   4
MIDLAND        CLOUDY    15   6  65 NW5       29.89F WCI   8
TROY           CLOUDY    17   6  62 W9G16     29.89S WCI   5
SAGINAW HB     CLOUDY    16   7  67 NW6       29.89S WCI   7
$$
MIZ043>046-050>051-056>058-064>065-071>073-077>080-130400-
SOUTHWEST LOWER MICHIGAN

CITY           SKY/WX    TMP DP  RH WIND       PRES   REMARKS
BATTLE CREEK   CLOUDY    17   8  67 W5        29.92S WCI  10
BENTON HARBOR  CLOUDY    24  12  60 NW12G23   29.95F WCI  13
BIG RAPIDS     FLURRIES  15  10  78 W3        29.87F
COLDWATER      FLURRIES  17  12  80 W5        29.92F WCI  10
FREMONT        CLOUDY    17  12  82 CALM      29.91F
HOLLAND        FLURRIES  18  14  84 CALM      29.94F
GRAND RAPIDS   CLOUDY    18  10  71 N9        29.91F WCI   7
IONIA          CLOUDY    18   8  64 W9        29.90S WCI   7
KALAMAZOO      LGT SNOW  17  13  84 NW6       29.94S WCI   9
LUDINGTON      CLOUDY    20   9  61 N5        29.90F WCI  14
MARSHALL       CLOUDY    16   8  69 SW7       29.91S WCI   6
MOUNT PLEASANT FLURRIES  15  10  80 CALM      29.88F
MUSKEGON       CLOUDY    19  13  77 E3        29.93F
SOUTH HAVEN    CLOUDY    24  13  60 NW8       29.94F WCI  16
$$
MIZ016>042-130400-
NORTHERN LOWER MICHIGAN

CITY           SKY/WX    TMP DP  RH WIND       PRES   REMARKS
ALPENA         LGT SNOW  10   6  84 NW6       29.85F FOG     WCI   0
BEAVER ISLAND  CLOUDY    15   6  68 N6        29.89F WCI   7
BELLAIRE       CLOUDY    16   8  70 N5        29.89S WCI   9
CADILLAC       CLOUDY    11   7  83 CALM      29.82F
CHARLEVOIX     CLOUDY    17   7  66 NW15      29.90F WCI   2
FRANKFORT      CLOUDY    20   9  60 NW7       29.90S WCI  11
GAYLORD        CLOUDY     8   1  73 VRB6      29.81F WCI  -2
GRAYLING       CLOUDY    10   4  74 N6        29.84S WCI   1
HARBOR SPRINGS CLOUDY    12   2  64 NW3       29.87F
HOUGHTON LAKE  CLOUDY    10   5  80 W8        29.84F WCI  -2
MANISTEE       CLOUDY    19   9  65 NW8       29.90F WCI   9
OSCODA         CLEAR      8  -2  64 W9        29.85S WCI  -6
PELLSTON       CLOUDY    12   3  67 NW12      29.88F WCI  -2
ROGERS CITY    CLOUDY    12   5  73 N10G16    29.86F WCI  -2
TRAVERSE CITY  LGT SNOW  18  14  84 VRB3      29.88S FOG
$$
MIZ007>008-015-130400-
EASTERN UPPER MICHIGAN

CITY           SKY/WX    TMP DP  RH WIND       PRES   REMARKS
KINROSS        CLEAR     -3  -8  79 NE8       29.87F WCI -18
MACKINAC ISLAN LGT SNOW   9   5  83 NE7       29.88S WCI  -2
NEWBERRY       CLOUDY     9   7  93 CALM      29.85F
S. S. MARIE    CLEAR     -2  -9  72 N6        29.88F WCI -14
MUNISING         N/A     13   8  81 VRB5      29.87F WCI   5
$$
MIZ004>006-011>014-085-130400-
CENTRAL UPPER MICHIGAN

CITY           SKY/WX    TMP DP  RH WIND       PRES   REMARKS
MANISTIQUE     CLOUDY    11   4  72 W3        29.88F
ESCANABA       PTCLDY     6   1  80 W5        29.92F WCI  -3
MENOMINEE      PTCLDY     9   3  77 CALM      29.93F
SAWYER-GWINN   CLOUDY    10   3  72 W7        29.85F WCI   0
$$
MIZ001>003-009>011-084-130400-
WESTERN UPPER MICHIGAN

CITY           SKY/WX    TMP DP  RH WIND       PRES   REMARKS
IRON MOUNTAIN  CLOUDY     9   4  80 CALM      29.85F
HOUGHTON       CLOUDY    10   5  80 S3        29.82F
COPPER HARBOR    N/A     12   7  80 W5        29.86F WCI   4
IRONWOOD       FLURRIES  10   5  80 S6        29.81F WCI   0
$$

ABBREVIATIONS USED IN REMARKS
   TC - TEMPERATURE IN CELSIUS
  WCI - WIND CHILL INDEX
   HX - HEAT INDEX
  VSB - VISIBILITY





USA.gov is the U.S. government's official web portal to all federal, state and local government web resources and services.